Location: Lourdes
(43.1000°N, 0.0500°W)
Time: 01:11:12
(UTC+00:00)

Cosmos 773 Rocket - Pass Details

Date: 18 April 2021
Orbit: 745 x 777 km, 74.1° (Epoch: 10 May)

Event Time Altitude Azimuth Distance (km) Brightness Sun altitude
Rises 23:18:27 0° 356° (N) 3,257 8.3 -34.9°
Reaches altitude 10° 23:22:38 10° 28° (NNE) 2,330 7.0 -35.1°
Maximum altitude 23:24:31 12° 49° (NE) 2,207 6.6 -35.1°
Enters shadow 23:25:09 12° 56° (NE) 2,221 6.6 -35.2°
